QPF
0.01 0.01 0.01 0.02 0.02 0.01 0.02 0.03 0.05 0.04 0.03 0.03 0.02 0.01 0.01 0.01 0.02 0.02 0.03 0.04 0.07 0.11 0.14 0.14 0.13 0.12 0.11 0.07 0.05 0.04 0.03 0.02 0.00 0.00 0.00 0.00 0.00 0.00 0.00 0.00 0.00 0.00 0.00
0.01 0.01 0.01 0.01 0.02 0.02 0.01 0.01 0.02 0.03 0.03 0.03 0.03 0.01 0.02 0.01 0.01 0.02 0.02 0.02 0.03 0.04 0.06 0.07 0.08 0.10 0.13 0.13 0.08 0.04 0.03 0.02 0.01 0.00 0.00 0.00 0.00 0.00 0.00 0.00 0.00 0.00 0.00
0.01 0.01 0.01 0.01 0.01 0.01 0.01 0.01 0.02 0.02 0.02 0.02 0.03 0.03 0.02 0.02 0.02 0.02 0.01 0.01 0.01 0.01 0.02 0.03 0.04 0.05 0.07 0.08 0.09 0.08 0.05 0.03 0.02 0.01 0.01 0.00 0.00 0.00 0.00 0.00 0.00 0.00 0.00
0.01 0.01 0.01 0.01 0.01 0.01 0.01 0.01 0.02 0.02 0.02 0.02 0.03 0.03 0.02 0.01 0.02 0.02 0.02 0.02 0.01 0.01 0.01 0.01 0.01 0.02 0.03 0.04 0.06 0.09 0.09 0.08 0.05 0.03 0.01 0.01 0.00 0.00 0.00 0.00 0.00 0.00 0.00
0.01 0.01 0.01 0.00 0.01 0.01 0.01 0.01 0.02 0.02 0.02 0.02 0.02 0.02 0.02 0.01 0.01 0.01 0.02 0.02 0.02 0.01 0.01 0.01 0.01 0.01 0.01 0.01 0.02 0.04 0.06 0.07 0.06 0.04 0.03 0.02 0.01 0.00 0.00 0.00 0.00 0.00 0.00
0.00 0.01 0.01 0.00 0.00 0.01 0.01 0.01 0.02 0.02 0.02 0.02 0.02 0.02 0.02 0.01 0.01 0.01 0.01 0.01 0.01 0.01 0.01 0.01 0.01 0.01 0.01 0.01 0.01 0.01 0.02 0.03 0.05 0.05 0.03 0.02 0.02 0.01 0.00 0.00 0.00 0.00 0.00
0.00 0.00 0.00 0.00 0.00 0.00 0.01 0.01 0.01 0.01 0.01 0.01 0.02 0.02 0.02 0.02 0.01 0.01 0.01 0.01 0.01 0.01 0.01 0.01 0.01 0.01 0.01 0.01 0.01 0.01 0.01 0.01 0.02 0.03 0.03 0.03 0.02 0.02 0.01 0.01 0.01 0.00 0.00
0.00 0.00 0.00 0.00 0.00 0.00 0.00 0.01 0.01 0.01 0.01 0.01 0.01 0.02 0.01 0.01 0.01 0.01 0.01 0.01 0.01 0.01 0.01 0.01 0.02 0.01 0.01 0.01 0.01 0.00 0.00 0.00 0.00 0.01 0.02 0.03 0.03 0.02 0.02 0.02 0.02 0.01 0.01
0.00 0.00 0.00 0.00 0.00 0.00 0.00 0.00 0.00 0.01 0.01 0.01 0.01 0.02 0.02 0.01 0.01 0.01 0.01 0.01 0.01 0.01 0.02 0.02 0.02 0.02 0.02 0.02 0.01 0.01 0.00 0.00 0.00 0.00 0.00 0.01 0.01 0.01 0.02 0.02 0.01 0.01 0.01
0.01 0.00 0.00 0.00 0.00 0.00 0.00 0.00 0.00 0.00 0.01 0.01 0.01 0.02 0.01 0.01 0.01 0.01 0.01 0.01 0.01 0.01 0.01 0.02 0.02 0.02 0.03 0.03 0.03 0.02 0.01 0.01 0.00 0.00 0.00 0.00 0.00 0.00 0.00 0.01 0.01 0.01 0.01
0.01 0.01 0.00 0.00 0.00 0.00 0.00 0.00 0.00 0.00 0.01 0.01 0.01 0.02 0.02 0.02 0.01 0.01 0.01 0.01 0.01 0.01 0.01 0.02 0.03 0.03 0.03 0.03 0.04 0.04 0.02 0.01 0.01 0.01 0.00 0.00 0.00 0.00 0.00 0.00 0.00 0.00 0.01
0.01 0.01 0.01 0.00 0.00 0.00 0.00 0.00 0.00 0.01 0.01 0.01 0.01 0.02 0.02 0.02 0.02 0.01 0.01 0.01 0.01 0.01 0.01 0.01 0.02 0.04 0.04 0.03 0.03 0.04 0.03 0.02 0.02 0.02 0.01 0.01 0.01 0.01 0.01 0.00 0.00 0.00 0.00
0.01 0.02 0.01 0.00 0.00 0.00 0.00 0.00 0.00 0.01 0.01 0.01 0.01 0.02 0.02 0.02 0.02 0.01 0.01 0.01 0.01 0.01 0.01 0.01 0.01 0.02 0.04 0.05 0.03 0.03 0.03 0.02 0.02 0.02 0.02 0.01 0.01 0.01 0.01 0.01 0.01 0.01 0.00
0.01 0.02 0.01 0.01 0.00 0.00 0.00 0.00 0.00 0.01 0.01 0.01 0.01 0.01 0.01 0.01 0.01 0.01 0.01 0.01 0.01 0.01 0.01 0.01 0.01 0.01 0.02 0.03 0.04 0.03 0.02 0.02 0.02 0.02 0.01 0.01 0.01 0.01 0.01 0.01 0.01 0.01 0.01
0.01 0.01 0.01 0.01 0.02 0.01 0.01 0.01 0.01 0.01 0.01 0.01 0.01 0.01 0.01 0.01 0.01 0.01 0.01 0.01 0.01 0.01 0.01 0.01 0.01 0.01 0.02 0.02 0.02 0.04 0.03 0.02 0.02 0.01 0.01 0.00 0.01 0.01 0.01 0.01 0.01 0.01 0.01
0.01 0.01 0.01 0.01 0.02 0.02 0.01 0.02 0.02 0.02 0.01 0.01 0.01 0.02 0.02 0.01 0.02 0.02 0.02 0.02 0.02 0.01 0.01 0.01 0.01 0.01 0.01 0.02 0.02 0.02 0.04 0.03 0.02 0.01 0.01 0.00 0.00 0.00 0.00 0.01 0.01 0.01 0.01
0.00 0.00 0.01 0.01 0.01 0.02 0.02 0.02 0.02 0.02 0.01 0.02 0.02 0.02 0.02 0.02 0.02 0.02 0.02 0.02 0.02 0.02 0.01 0.01 0.01 0.01 0.01 0.02 0.02 0.02 0.03 0.03 0.02 0.02 0.01 0.00 0.00 0.00 0.00 0.00 0.00 0.00 0.00
0.00 0.00 0.00 0.01 0.01 0.02 0.02 0.02 0.02 0.02 0.02 0.03 0.02 0.02 0.02 0.02 0.02 0.02 0.01 0.02 0.02 0.02 0.02 0.01 0.01 0.01 0.01 0.01 0.01 0.02 0.02 0.03 0.03 0.02 0.01 0.00 0.00 0.00 0.00 0.00 0.00 0.00 0.00
0.00 0.00 0.00 0.01 0.01 0.01 0.02 0.02 0.02 0.02 0.03 0.03 0.02 0.01 0.01 0.02 0.02 0.01 0.01 0.01 0.01 0.02 0.02 0.02 0.02 0.01 0.01 0.01 0.01 0.01 0.01 0.03 0.03 0.02 0.02 0.01 0.00 0.01 0.01 0.01 0.00 0.00 0.00
0.00 0.00 0.00 0.00 0.00 0.01 0.02 0.02 0.02 0.02 0.02 0.02 0.02 0.01 0.01 0.01 0.01 0.01 0.00 0.00 0.01 0.01 0.02 0.02 0.02 0.02 0.01 0.01 0.01 0.01 0.01 0.02 0.02 0.02 0.02 0.01 0.01 0.00 0.01 0.01 0.01 0.00 0.00
0.00 0.00 0.00 0.00 0.00 0.00 0.01 0.02 0.02 0.02 0.02 0.02 0.02 0.01 0.01 0.01 0.01 0.01 0.00 0.00 0.00 0.01 0.01 0.02 0.02 0.02 0.02 0.01 0.01 0.01 0.00 0.01 0.01 0.01 0.01 0.01 0.01 0.01 0.01 0.01 0.01 0.01 0.00
0.00 0.00 0.00 0.00 0.00 0.00 0.00 0.01 0.01 0.01 0.02 0.02 0.02 0.02 0.02 0.01 0.01 0.01 0.01 0.00 0.00 0.00 0.00 0.01 0.01 0.01 0.02 0.02 0.01 0.01 0.01 0.01 0.01 0.02 0.01 0.01 0.01 0.01 0.01 0.01 0.01 0.01 0.01
0.00 0.00 0.00 0.00 0.00 0.00 0.00 0.00 0.01 0.01 0.01 0.02 0.02 0.02 0.02 0.02 0.02 0.01 0.00 0.00 0.00 0.00 0.00 0.00 0.01 0.01 0.01 0.02 0.01 0.01 0.01 0.01 0.01 0.01 0.02 0.01 0.01 0.01 0.01 0.01 0.01 0.01 0.01
0.00 0.00 0.00 0.00 0.00 0.00 0.00 0.00 0.00 0.01 0.01 0.02 0.03 0.02 0.02 0.02 0.02 0.02 0.01 0.01 0.00 0.00 0.00 0.00 0.00 0.00 0.01 0.02 0.01 0.01 0.01 0.01 0.01 0.01 0.01 0.02 0.01 0.01 0.00 0.00 0.00 0.00 0.01
0.00 0.00 0.00 0.00 0.00 0.00 0.00 0.00 0.00 0.01 0.01 0.02 0.02 0.03 0.02 0.02 0.02 0.01 0.01 0.01 0.00 0.00 0.00 0.00 0.00 0.00 0.00 0.01 0.01 0.02 0.01 0.02 0.02 0.01 0.01 0.01 0.01 0.01 0.01 0.01 0.01 0.00 0.01
0.00 0.00 0.01 0.00 0.00 0.00 0.00 0.00 0.00 0.01 0.01 0.01 0.02 0.02 0.02 0.02 0.02 0.01 0.01 0.01 0.00 0.00 0.00 0.00 0.00 0.00 0.00 0.01 0.01 0.01 0.01 0.01 0.02 0.01 0.01 0.01 0.01 0.01 0.01 0.01 0.01 0.01 0.01
MSLP
1010.63 1010.81 1010.99 1011.17 1011.40 1011.70 1012.08 1012.58 1013.19 1013.89 1014.66 1015.46 1016.26 1017.01 1017.69 1018.29 1018.79 1019.21 1019.55 1019.80 1019.99 1020.10 1020.14 1020.10 1019.99 1019.79 1019.53 1019.19 1018.80 1018.36 1017.89 1017.40 1016.92 1016.46 1016.04 1015.68 1015.39 1015.19 1015.08 1015.07 1015.15 1015.32 1015.57
1010.70 1010.85 1010.99 1011.14 1011.32 1011.57 1011.91 1012.36 1012.93 1013.60 1014.33 1015.11 1015.89 1016.63 1017.32 1017.94 1018.48 1018.94 1019.32 1019.64 1019.89 1020.07 1020.18 1020.20 1020.14 1019.99 1019.76 1019.44 1019.06 1018.62 1018.14 1017.63 1017.13 1016.64 1016.18 1015.77 1015.43 1015.18 1015.02 1014.95 1014.99 1015.11 1015.33
1010.83 1010.97 1011.10 1011.22 1011.37 1011.58 1011.88 1012.29 1012.81 1013.43 1014.11 1014.84 1015.57 1016.27 1016.94 1017.54 1018.08 1018.56 1018.99 1019.36 1019.67 1019.92 1020.10 1020.20 1020.21 1020.12 1019.94 1019.67 1019.32 1018.91 1018.45 1017.96 1017.46 1016.97 1016.50 1016.07 1015.69 1015.39 1015.17 1015.04 1015.01 1015.07 1015.22
1011.00 1011.14 1011.26 1011.38 1011.51 1011.71 1011.98 1012.35 1012.82 1013.37 1013.99 1014.64 1015.30 1015.95 1016.55 1017.12 1017.64 1018.12 1018.57 1018.98 1019.35 1019.66 1019.92 1020.09 1020.18 1020.16 1020.06 1019.85 1019.57 1019.22 1018.82 1018.38 1017.92 1017.46 1017.00 1016.57 1016.18 1015.83 1015.56 1015.36 1015.24 1015.22 1015.28
1011.14 1011.30 1011.44 1011.57 1011.71 1011.89 1012.15 1012.48 1012.91 1013.40 1013.95 1014.52 1015.09 1015.65 1016.19 1016.70 1017.18 1017.65 1018.10 1018.53 1018.95 1019.32 1019.65 1019.90 1020.06 1020.14 1020.11 1019.99 1019.80 1019.53 1019.21 1018.85 1018.47 1018.06 1017.65 1017.25 1016.86 1016.49 1016.17 1015.89 1015.69 1015.55 1015.51
1011.25 1011.44 1011.61 1011.76 1011.91 1012.10 1012.35 1012.66 1013.03 1013.47 1013.94 1014.43 1014.92 1015.40 1015.85 1016.29 1016.73 1017.17 1017.62 1018.07 1018.51 1018.94 1019.33 1019.65 1019.89 1020.04 1020.11 1020.08 1019.98 1019.81 1019.59 1019.33 1019.04 1018.72 1018.39 1018.03 1017.66 1017.29 1016.93 1016.59 1016.30 1016.06 1015.89
1011.34 1011.57 1011.77 1011.94 1012.11 1012.30 1012.54 1012.82 1013.16 1013.55 1013.95 1014.36 1014.77 1015.16 1015.54 1015.92 1016.31 1016.71 1017.15 1017.60 1018.07 1018.54 1018.97 1019.35 1019.66 1019.89 1020.03 1020.09 1020.08 1020.01 1019.90 1019.75 1019.57 1019.35 1019.10 1018.82 1018.50 1018.15 1017.77 1017.39 1017.02 1016.68 1016.40
1011.45 1011.72 1011.94 1012.12 1012.29 1012.48 1012.70 1012.96 1013.26 1013.59 1013.93 1014.27 1014.61 1014.93 1015.24 1015.56 1015.90 1016.28 1016.70 1017.15 1017.64 1018.12 1018.59 1019.02 1019.38 1019.66 1019.87 1020.00 1020.08 1020.10 1020.09 1020.04 1019.97 1019.86 1019.71 1019.51 1019.27 1018.96 1018.60 1018.20 1017.79 1017.38 1017.00
1011.65 1011.93 1012.15 1012.33 1012.48 1012.65 1012.83 1013.05 1013.31 1013.59 1013.87 1014.15 1014.42 1014.68 1014.94 1015.21 1015.51 1015.86 1016.26 1016.71 1017.19 1017.69 1018.18 1018.63 1019.03 1019.36 1019.61 1019.81 1019.95 1020.05 1020.12 1020.17 1020.19 1020.19 1020.14 1020.04 1019.88 1019.65 1019.34 1018.96 1018.54 1018.10 1017.66
1011.98 1012.24 1012.44 1012.58 1012.69 1012.81 1012.95 1013.11 1013.31 1013.54 1013.76 1013.99 1014.21 1014.42 1014.63 1014.86 1015.13 1015.45 1015.83 1016.26 1016.74 1017.23 1017.73 1018.19 1018.61 1018.96 1019.25 1019.49 1019.68 1019.84 1019.98 1020.10 1020.21 1020.30 1020.35 1020.36 1020.30 1020.15 1019.92 1019.61 1019.23 1018.80 1018.35
1012.44 1012.66 1012.80 1012.88 1012.93 1012.98 1013.05 1013.15 1013.29 1013.45 1013.62 1013.79 1013.96 1014.13 1014.30 1014.50 1014.73 1015.02 1015.37 1015.79 1016.24 1016.73 1017.22 1017.68 1018.11 1018.47 1018.79 1019.05 1019.28 1019.48 1019.67 1019.85 1020.03 1020.20 1020.34 1020.45 1020.49 1020.45 1020.33 1020.11 1019.81 1019.45 1019.03
1012.98 1013.14 1013.21 1013.21 1013.18 1013.15 1013.14 1013.17 1013.24 1013.34 1013.45 1013.58 1013.70 1013.83 1013.96 1014.13 1014.33 1014.59 1014.91 1015.29 1015.72 1016.18 1016.66 1017.11 1017.54 1017.91 1018.24 1018.53 1018.78 1019.01 1019.23 1019.46 1019.69 1019.92 1020.14 1020.34 1020.48 1020.56 1020.55 1020.45 1020.27 1020.00 1019.67
1013.52 1013.60 1013.59 1013.51 1013.41 1013.30 1013.21 1013.17 1013.17 1013.21 1013.27 1013.35 1013.44 1013.53 1013.63 1013.76 1013.93 1014.15 1014.44 1014.78 1015.18 1015.61 1016.06 1016.50 1016.92 1017.30 1017.64 1017.94 1018.22 1018.47 1018.72 1018.98 1019.25 1019.53 1019.81 1020.07 1020.30 1020.48 1020.59 1020.63 1020.57 1020.43 1020.20
1013.95 1013.95 1013.87 1013.73 1013.55 1013.38 1013.23 1013.13 1013.08 1013.07 1013.09 1013.13 1013.18 1013.24 1013.31 1013.41 1013.55 1013.74 1013.98 1014.28 1014.64 1015.03 1015.45 1015.88 1016.29 1016.67 1017.02 1017.34 1017.63 1017.91 1018.18 1018.46 1018.75 1019.06 1019.38 1019.69 1019.99 1020.26 1020.47 1020.62 1020.69 1020.68 1020.59
1014.17 1014.12 1013.98 1013.78 1013.56 1013.35 1013.16 1013.02 1012.94 1012.89 1012.88 1012.90 1012.92 1012.96 1013.01 1013.09 1013.19 1013.34 1013.55 1013.81 1014.12 1014.48 1014.86 1015.26 1015.66 1016.04 1016.40 1016.74 1017.05 1017.35 1017.64 1017.93 1018.24 1018.56 1018.89 1019.24 1019.58 1019.91 1020.20 1020.45 1020.63 1020.75 1020.78
1014.13 1014.02 1013.85 1013.63 1013.39 1013.16 1012.97 1012.81 1012.71 1012.65 1012.63 1012.63 1012.65 1012.67 1012.71 1012.77 1012.85 1012.97 1013.14 1013.36 1013.63 1013.95 1014.30 1014.67 1015.05 1015.43 1015.79 1016.14 1016.47 1016.79 1017.10 1017.40 1017.71 1018.03 1018.37 1018.72 1019.09 1019.45 1019.80 1020.12 1020.39 1020.60 1020.75
1013.80 1013.67 1013.48 1013.25 1013.02 1012.80 1012.62 1012.47 1012.38 1012.32 1012.30 1012.30 1012.32 1012.35 1012.38 1012.43 1012.51 1012.61 1012.75 1012.94 1013.17 1013.45 1013.76 1014.10 1014.47 1014.83 1015.20 1015.55 1015.90 1016.23 1016.54 1016.85 1017.17 1017.48 1017.82 1018.16 1018.53 1018.91 1019.28 1019.65 1019.98 1020.27 1020.51
1013.23 1013.07 1012.87 1012.66 1012.45 1012.26 1012.10 1011.98 1011.91 1011.87 1011.86 1011.87 1011.90 1011.93 1011.98 1012.04 1012.11 1012.21 1012.34 1012.50 1012.71 1012.95 1013.23 1013.55 1013.88 1014.23 1014.59 1014.95 1015.29 1015.63 1015.95 1016.27 1016.58 1016.90 1017.22 1017.55 1017.91 1018.29 1018.67 1019.06 1019.44 1019.79 1020.09
1012.47 1012.29 1012.10 1011.91 1011.73 1011.57 1011.44 1011.35 1011.29 1011.27 1011.28 1011.30 1011.35 1011.40 1011.46 1011.54 1011.63 1011.74 1011.87 1012.02 1012.21 1012.43 1012.68 1012.97 1013.27 1013.60 1013.95 1014.29 1014.64 1014.98 1015.31 1015.63 1015.94 1016.25 1016.56 1016.89 1017.24 1017.61 1018.00 1018.41 1018.81 1019.19 1019.54
1011.62 1011.42 1011.23 1011.06 1010.90 1010.77 1010.67 1010.60 1010.56 1010.55 1010.56 1010.60 1010.65 1010.72 1010.81 1010.91 1011.02 1011.15 1011.29 1011.46 1011.64 1011.85 1012.08 1012.34 1012.63 1012.93 1013.25 1013.59 1013.92 1014.26 1014.59 1014.91 1015.23 1015.54 1015.85 1016.18 1016.53 1016.90 1017.29 1017.71 1018.13 1018.54 1018.93
1010.73 1010.52 1010.33 1010.17 1010.03 1009.92 1009.84 1009.78 1009.74 1009.73 1009.74 1009.78 1009.83 1009.91 1010.01 1010.14 1010.27 1010.43 1010.60 1010.78 1010.98 1011.19 1011.41 1011.66 1011.92 1012.20 1012.51 1012.82 1013.15 1013.47 1013.80 1014.13 1014.44 1014.76 1015.09 1015.42 1015.78 1016.16 1016.57 1016.99 1017.44 1017.88 1018.30
1009.86 1009.64 1009.45 1009.30 1009.18 1009.07 1008.99 1008.93 1008.89 1008.86 1008.85 1008.87 1008.92 1008.99 1009.10 1009.24 1009.40 1009.58 1009.78 1009.99 1010.21 1010.43 1010.67 1010.91 1011.16 1011.43 1011.71 1012.01 1012.32 1012.64 1012.96 1013.28 1013.61 1013.94 1014.27 1014.63 1015.00 1015.39 1015.82 1016.27 1016.74 1017.21 1017.66
1009.03 1008.80 1008.62 1008.47 1008.36 1008.26 1008.18 1008.10 1008.03 1007.98 1007.94 1007.93 1007.95 1008.01 1008.11 1008.25 1008.43 1008.64 1008.87 1009.11 1009.35 1009.60 1009.85 1010.09 1010.35 1010.61 1010.88 1011.17 1011.46 1011.77 1012.09 1012.41 1012.74 1013.08 1013.43 1013.79 1014.19 1014.61 1015.06 1015.54 1016.03 1016.53 1017.02
1008.22 1008.01 1007.84 1007.71 1007.60 1007.50 1007.41 1007.31 1007.21 1007.12 1007.04 1006.99 1006.97 1007.00 1007.09 1007.22 1007.41 1007.63 1007.88 1008.15 1008.43 1008.70 1008.97 1009.23 1009.50 1009.76 1010.03 1010.31 1010.60 1010.89 1011.20 1011.52 1011.85 1012.20 1012.56 1012.95 1013.35 1013.80 1014.27 1014.78 1015.30 1015.83 1016.34
1007.43 1007.24 1007.09 1006.98 1006.87 1006.78 1006.67 1006.55 1006.42 1006.29 1006.17 1006.08 1006.02 1006.02 1006.07 1006.19 1006.37 1006.60 1006.86 1007.15 1007.45 1007.75 1008.05 1008.34 1008.62 1008.89 1009.17 1009.44 1009.73 1010.02 1010.33 1010.64 1010.97 1011.32 1011.69 1012.08 1012.51 1012.97 1013.46 1013.98 1014.53 1015.08 1015.62
1006.65 1006.48 1006.35 1006.25 1006.15 1006.05 1005.93 1005.79 1005.64 1005.47 1005.32 1005.19 1005.10 1005.06 1005.09 1005.19 1005.35 1005.57 1005.83 1006.13 1006.45 1006.77 1007.09 1007.40 1007.70 1007.99 1008.28 1008.56 1008.85 1009.15 1009.45 1009.77 1010.10 1010.45 1010.82 1011.22 1011.65 1012.12 1012.62 1013.16 1013.72 1014.29 1014.85
Thickness
5599 5598 5598 5598 5598 5598 5598 5598 5597 5596 5594 5593 5592 5591 5591 5590 5589 5589 5589 5588 5588 5587 5587 5587 5587 5587 5588 5588 5588 5588 5588 5587 5587 5588 5589 5589 5588 5588 5587 5585 5584 5583 5581
5589 5590 5590 5591 5591 5591 5590 5591 5591 5590 5589 5587 5586 5586 5585 5583 5582 5581 5581 5581 5581 5580 5580 5580 5580 5580 5580 5580 5580 5580 5580 5579 5578 5580 5582 5584 5584 5582 5579 5578 5576 5575 5573
5581 5583 5583 5584 5584 5584 5584 5585 5585 5584 5582 5580 5578 5576 5575 5574 5574 5574 5574 5574 5574 5573 5573 5573 5572 5573 5573 5572 5572 5572 5572 5572 5570 5570 5572 5575 5578 5576 5574 5570 5568 5566 5565
5572 5574 5576 5577 5578 5578 5577 5577 5577 5576 5574 5573 5572 5572 5572 5572 5571 5569 5568 5567 5566 5565 5565 5565 5565 5565 5565 5565 5565 5564 5564 5563 5562 5561 5559 5560 5562 5563 5565 5563 5560 5558 5557
5563 5565 5567 5568 5569 5569 5569 5569 5568 5568 5566 5565 5565 5565 5566 5566 5564 5562 5561 5560 5559 5558 5557 5557 5557 5557 5557 5557 5557 5557 5555 5555 5555 5553 5552 5550 5549 5550 5552 5556 5554 5550 5548
5554 5555 5557 5558 5559 5560 5560 5560 5560 5559 5558 5557 5557 5558 5559 5558 5556 5555 5554 5553 5552 5551 5550 5549 5549 5549 5550 5549 5549 5548 5547 5547 5546 5545 5544 5543 5542 5541 5542 5545 5546 5545 5542
5547 5548 5548 5549 5551 5552 5552 5552 5553 5552 5550 5550 5550 5551 5551 5550 5549 5549 5547 5546 5545 5545 5544 5542 5542 5542 5542 5541 5540 5540 5540 5539 5538 5537 5535 5534 5533 5531 5531 5533 5534 5534 5533
5539 5539 5540 5541 5542 5543 5544 5545 5545 5544 5543 5542 5542 5542 5542 5542 5542 5541 5540 5539 5539 5538 5536 5535 5535 5535 5534 5533 5532 5532 5531 5530 5529 5528 5526 5525 5524 5522 5521 5521 5522 5524 5525
5530 5530 5531 5532 5534 5535 5536 5537 5537 5536 5535 5534 5534 5534 5533 5533 5533 5532 5532 5531 5531 5529 5528 5527 5527 5526 5525 5525 5524 5524 5523 5522 5521 5520 5518 5516 5515 5513 5512 5511 5510 5511 5515
5522 5522 5523 5524 5525 5526 5527 5527 5527 5527 5527 5526 5526 5526 5525 5525 5524 5523 5523 5523 5522 5521 5520 5519 5519 5518 5517 5516 5515 5516 5515 5514 5512 5511 5509 5507 5506 5504 5502 5501 5501 5500 5501
5514 5514 5516 5516 5517 5518 5518 5518 5519 5518 5518 5517 5517 5517 5517 5516 5515 5515 5515 5514 5513 5512 5511 5511 5510 5510 5509 5508 5507 5507 5506 5505 5504 5502 5500 5499 5497 5495 5494 5492 5492 5491 5490
5505 5506 5507 5509 5510 5510 5511 5511 5511 5510 5509 5509 5508 5508 5507 5507 5506 5506 5506 5505 5504 5503 5502 5502 5501 5501 5501 5500 5500 5499 5497 5497 5495 5493 5492 5490 5488 5487 5485 5484 5483 5482 5481
5497 5498 5499 5500 5502 5502 5502 5502 5502 5501 5500 5499 5499 5499 5499 5498 5498 5498 5497 5496 5495 5495 5494 5493 5493 5492 5492 5491 5491 5490 5489 5487 5486 5485 5483 5481 5479 5478 5476 5475 5473 5472 5470
5489 5491 5492 5493 5494 5494 5494 5493 5493 5492 5491 5490 5490 5490 5490 5489 5489 5488 5487 5487 5486 5486 5486 5485 5484 5483 5483 5482 5481 5480 5479 5478 5476 5474 5473 5472 5470 5468 5467 5465 5463 5462 5460
5482 5483 5485 5485 5486 5485 5485 5484 5483 5483 5482 5482 5482 5481 5481 5480 5479 5478 5478 5477 5477 5476 5476 5475 5474 5474 5473 5473 5473 5471 5470 5469 5467 5465 5463 5462 5459 5457 5456 5455 5453 5452 5451
5476 5476 5476 5477 5477 5477 5477 5476 5475 5474 5474 5474 5473 5472 5472 5471 5470 5469 5468 5467 5467 5466 5466 5465 5465 5465 5465 5464 5463 5462 5460 5459 5458 5456 5454 5452 5449 5447 5446 5445 5444 5442 5441
5469 5469 5469 5469 5469 5469 5469 5468 5468 5467 5466 5465 5464 5463 5462 5462 5461 5460 5459 5458 5457 5457 5457 5456 5456 5456 5455 5453 5453 5451 5451 5450 5449 5447 5445 5443 5441 5439 5438 5437 5435 5433 5431
5462 5462 5462 5462 5461 5461 5460 5460 5459 5458 5458 5457 5456 5455 5454 5453 5452 5451 5450 5449 5449 5449 5448 5447 5447 5446 5446 5444 5443 5442 5441 5440 5439 5437 5436 5434 5433 5431 5429 5428 5427 5426 5424
5454 5454 5454 5454 5453 5453 5452 5451 5450 5450 5449 5449 5448 5446 5445 5444 5443 5442 5442 5441 5440 5440 5439 5438 5437 5437 5436 5434 5433 5432 5432 5431 5429 5428 5426 5425 5424 5422 5420 5419 5419 5418 5416
5445 5445 5446 5446 5445 5444 5443 5443 5443 5443 5442 5441 5439 5438 5437 5436 5436 5435 5434 5432 5432 5431 5430 5429 5428 5428 5427 5425 5424 5423 5423 5422 5421 5419 5418 5416 5415 5413 5411 5410 5410 5409 5408
5436 5437 5437 5437 5437 5435 5434 5435 5435 5435 5434 5432 5430 5429 5428 5428 5427 5426 5425 5424 5423 5422 5421 5421 5420 5419 5418 5417 5416 5414 5414 5413 5412 5411 5410 5408 5406 5404 5403 5402 5402 5400 5398
5427 5428 5429 5429 5428 5426 5426 5427 5427 5426 5424 5423 5422 5421 5420 5419 5418 5418 5417 5416 5415 5414 5413 5412 5412 5411 5409 5408 5407 5406 5404 5403 5403 5403 5402 5400 5398 5396 5395 5394 5393 5390 5388
5418 5419 5420 5420 5419 5418 5417 5418 5419 5417 5416 5415 5415 5413 5412 5411 5410 5410 5409 5408 5407 5407 5406 5405 5405 5404 5402 5400 5398 5397 5396 5394 5394 5394 5393 5391 5390 5388 5387 5386 5384 5381 5380
5409 5410 5411 5411 5411 5410 5409 5409 5409 5409 5408 5408 5407 5406 5405 5404 5403 5402 5401 5401 5400 5400 5399 5398 5397 5396 5394 5393 5391 5390 5388 5386 5386 5385 5384 5382 5380 5379 5379 5377 5375 5373 5371
5400 5401 5402 5403 5403 5402 5401 5401 5401 5401 5401 5400 5399 5398 5397 5397 5395 5395 5394 5394 5394 5394 5392 5392 5390 5389 5388 5387 5384 5383 5382 5381 5379 5377 5375 5374 5373 5372 5370 5368 5366 5363 5362
5392 5393 5394 5394 5395 5394 5393 5393 5393 5393 5393 5393 5392 5391 5390 5389 5388 5387 5386 5384 5384 5384 5383 5382 5381 5381 5379 5378 5377 5375 5374 5372 5371 5369 5368 5367 5366 5365 5363 5360 5358 5356 5354